Osaka Airport, Japan

11:48 AM JST on August 20, 2017 (GMT +0900)
Osaka International

Weather History for RJOO - October, 2012

Change the Weather History Date:

Wednesday, October 17, 2012

  Actual Average Record
Temperature  
Mean Temperature 66 °F -  
Max Temperature 69 °F 66 °F 77 °F (2002)
Min Temperature 64 °F 50 °F 46 °F (1996)
Cooling Degree Days 2    
Growing Degree Days 16 (Base 50)    
Moisture  
Dew Point 62 °F    
Average Humidity 87    
Maximum Humidity 100    
Minimum Humidity 60    
Precipitation  
Precipitation 0.00 in - - ()
Sea Level Pressure  
Sea Level Pressure 29.81 in    
Wind  
Wind Speed 10 mph ()    
Max Wind Speed 18 mph    
Max Gust Speed 29 mph    
Visibility 4.4 miles    
Events Rain , Thunderstorm    
Averages and records for this station are not official NWS values.
T = Trace of Precipitation, MM = Missing Value Source: Averaged Metar Reports

Daily Weather History Graph

Daily Weather History Graph

Search for Another Location

Airport or City:

Trip Planner

Search our weather history database for the weather conditions in past years. The results will help you decide how hot, cold, wet, or windy it might be!

Date:

Astronomy

Oct. 17, 2012 Rise Set
Actual Time 6:05 AM JST 5:21 PM JST
Civil Twilight 5:40 AM JST 5:46 PM JST
Nautical Twilight 5:10 AM JST 6:15 PM JST
Astronomical Twilight 4:41 AM JST 6:45 PM JST
Moon 7:49 AM JST (10/17) 6:30 PM JST (10/17)
Length of Visible Light 12h 06m
Length of Day
11h 15m
Waxing Crescent, 4% of the Moon is Illuminated
Oct 17
Waxing Crescent
Oct 22
First Quarter
Oct 30
Full
Nov 7
Last Quarter
Nov 14
New

Hourly Weather History & Observations

Time (JST) Temp. Dew Point Humidity Pressure Visibility Wind Dir Wind Speed Gust Speed Precip Events Conditions
5:00 AM 66.2 °F 53.6 °F 64% 30.01 in - ENE 15.0 mph - N/A   Clear
6:00 AM 66.2 °F 53.6 °F 64% 29.98 in 6.2 mi ENE 12.7 mph - N/A   Mostly Cloudy
7:00 AM 68.0 °F 53.6 °F 60% 29.98 in 6.2 mi ENE 12.7 mph - N/A   Mostly Cloudy
8:00 AM 69.8 °F 55.4 °F 60% 29.98 in 6.2 mi ENE 16.1 mph - N/A   Mostly Cloudy
8:31 AM 69.8 °F 55.4 °F 60% 29.95 in 6.2 mi East 17.3 mph 28.8 mph N/A   Mostly Cloudy
9:00 AM 68.0 °F 57.2 °F 68% 29.95 in 6.2 mi East 12.7 mph - N/A Rain Light Rain
10:00 AM 66.2 °F 60.8 °F 83% 29.92 in 6.2 mi East 11.5 mph - N/A Rain Light Rain
10:16 AM 66.2 °F 60.8 °F 83% 29.95 in 2.8 mi East 10.4 mph - N/A Rain Rain
10:39 AM 64.4 °F 62.6 °F 94% 29.92 in 2.8 mi East 9.2 mph - N/A Rain Rain
10:41 AM 64.4 °F 62.6 °F 94% 29.92 in 3.1 mi ENE 9.2 mph - N/A Rain Rain
10:48 AM 64.4 °F 62.6 °F 94% 29.89 in 5.0 mi ENE 8.1 mph - N/A Rain Light Rain
11:00 AM 64.4 °F 62.6 °F 94% 29.89 in 6.2 mi NE 9.2 mph - N/A Rain Light Rain
11:43 AM 64.4 °F 62.6 °F 94% 29.86 in 5.0 mi NE 9.2 mph - N/A Rain Rain
12:00 PM 66.2 °F 62.6 °F 88% 29.86 in 6.2 mi ENE 10.4 mph - N/A Rain Light Rain
12:21 PM 66.2 °F 62.6 °F 88% 29.83 in 5.0 mi ENE 10.4 mph - N/A Rain Rain
1:00 PM 66.2 °F 62.6 °F 88% 29.80 in 2.5 mi ENE 11.5 mph - N/A Rain Rain
1:01 PM 66.2 °F 62.6 °F 88% 29.80 in 2.2 mi ENE 12.7 mph - N/A Rain Rain
1:05 PM 66.2 °F 62.6 °F 88% 29.80 in 2.2 mi ENE 12.7 mph - N/A Rain Rain
1:12 PM 66.2 °F 62.6 °F 88% 29.80 in 2.2 mi ENE 13.8 mph - N/A Rain Heavy Rain
1:17 PM 64.4 °F 62.6 °F 94% 29.77 in 5.0 mi ENE 15.0 mph - N/A Rain Rain
1:20 PM 64.4 °F 62.6 °F 94% 29.77 in 6.2 mi ENE 13.8 mph - N/A Rain Light Rain
2:00 PM 66.2 °F 62.6 °F 88% 29.77 in 6.2 mi ENE 12.7 mph - N/A Rain Light Rain
3:00 PM 68.0 °F 62.6 °F 83% 29.74 in 6.2 mi ENE 11.5 mph - N/A Rain Light Rain
4:00 PM 68.0 °F 62.6 °F 83% 29.71 in 6.2 mi ENE 12.7 mph - N/A   Mostly Cloudy
4:22 PM 68.0 °F 62.6 °F 83% 29.71 in 6.2 mi NNE 5.8 mph - N/A Rain Rain Showers
4:32 PM 68.0 °F 64.4 °F 88% 29.74 in 2.5 mi North 4.6 mph - N/A Rain Heavy Rain Showers
4:35 PM 68.0 °F 62.6 °F 83% 29.74 in 6.2 mi North 5.8 mph - N/A Rain Heavy Rain Showers
4:41 PM 68.0 °F 64.4 °F 88% 29.74 in 6.2 mi North 5.8 mph - N/A Rain Rain Showers
5:00 PM 66.2 °F 64.4 °F 94% 29.74 in 5.6 mi North 6.9 mph - N/A Rain Rain Showers
5:45 PM 66.2 °F 64.4 °F 94% 29.74 in 1.9 mi NNW 11.5 mph - N/A Rain Heavy Rain Showers
6:00 PM 66.2 °F 64.4 °F 94% 29.74 in 0.9 mi NNW 17.3 mph - N/A Rain , Thunderstorm Heavy Thunderstorms and Rain
6:03 PM 66.2 °F 64.4 °F 94% 29.74 in 0.9 mi NNW 18.4 mph - N/A Rain , Thunderstorm Heavy Thunderstorms and Rain
6:08 PM 66.2 °F 64.4 °F 94% 29.74 in 0.6 mi NW 4.6 mph - N/A Rain , Thunderstorm Heavy Thunderstorms and Rain
6:15 PM 66.2 °F 64.4 °F 94% 29.71 in 1.2 mi ENE 9.2 mph - N/A Rain , Thunderstorm Heavy Thunderstorms and Rain
6:21 PM 66.2 °F 64.4 °F 94% 29.74 in 2.2 mi East 8.1 mph - N/A Rain , Thunderstorm Thunderstorms and Rain
6:24 PM 66.2 °F 64.4 °F 94% 29.74 in 3.1 mi East 6.9 mph - N/A Rain , Thunderstorm Thunderstorms and Rain
6:31 PM 66.2 °F 66.2 °F 100% 29.74 in 4.3 mi NE 4.6 mph - N/A Rain Rain Showers
6:38 PM 66.2 °F 64.4 °F 94% 29.74 in 6.2 mi North 8.1 mph - N/A Rain Light Rain Showers
7:00 PM 66.2 °F 64.4 °F 94% 29.74 in 4.3 mi NNW 10.4 mph - N/A Rain Rain Showers
7:19 PM 66.2 °F 64.4 °F 94% 29.74 in 5.6 mi NW 10.4 mph - N/A Rain Light Rain Showers
8:00 PM 66.2 °F 64.4 °F 94% 29.77 in 6.2 mi NW 8.1 mph - N/A Rain Light Rain Showers
8:29 PM 66.2 °F 62.6 °F 88% 29.77 in 4.3 mi NW 6.9 mph - N/A Rain Rain Showers
8:46 PM 66.2 °F 64.4 °F 94% 29.77 in 6.2 mi NW 4.6 mph - N/A Rain Light Rain Showers